STARLINK-31999 (60101 NORAD) Tracking and Keplerian Element Data

This shows tracking and keplerian element data for the satellite.

Feedback or suggestion? Click here.




ElementValue
Catalog60101
NameSTARLINK-31999
Epoch Orbit1837
Epoch Day286.90910965
Epoch Year2024
RAAN259.2128
Inclination53.1592
Eccentricity5.27E-05
Argument of Perigee89.9929
Mean Anonmoly270.1132
Mean Motion15.30196342
Decay Rate0.00035992
L11 60101U 24117L 24286.90910965 .00035992 00000+0 12216-2 0 9995
L22 60101 53.1592 259.2128 0000527 89.9929 270.1132 15.30196342 18373



Live tracking and technical data element details for STARLINK-31999 (NORAD 60101). STARLINK-31999 can be tracked NOW for your location showing map with azimuth and elevation plus other details from your city location.







IsCatalogInMostPopularTable: catalog: 60101, numindb: 12
Update: records affected: 1



GetName: 60101 STARLINK-31999

Hit Count: updated at: Thu, 23 Jan 2025 14:09:20 GMT